This is the latest recevied weather packets stored in our database for station/object CA3DPI. If no packets are shown the sender has not sent any weather packets the latest 10 day(s).
| Time | Temp. | Humidity | Pressure | Rain* | Wind** | Luminosity | Snow |
|---|---|---|---|---|---|---|---|
| 1777810018 | 14.44° C | 46% | 1020.7 hPa | - | - | - | - |
| 1777809418 | 13.33° C | 46% | 1020.5 hPa | - | - | - | - |
| 1777808818 | 12.22° C | 49% | 1020.3 hPa | - | - | - | - |
| 1777808217 | 11.11° C | 50% | 1020.3 hPa | - | - | - | - |
| 1777807617 | 11.11° C | 51% | 1020.4 hPa | - | - | - | - |
| 1777807017 | 11.11° C | 51% | 1020.1 hPa | - | - | - | - |
| 1777806417 | 11.11° C | 50% | 1020.1 hPa | - | - | - | - |
| 1777805817 | 11.11° C | 51% | 1019.9 hPa | - | - | - | - |
| 1777805217 | 11.67° C | 50% | 1020 hPa | - | - | - | - |
| 1777804617 | 11.67° C | 47% | 1019.8 hPa | - | - | - | - |
| 1777804093 | 11.67° C | 48% | 1019.8 hPa | - | - | - | - |
| 1777804016 | 11.67° C | 48% | 1019.8 hPa | - | - | - | - |
| 1777803416 | 12.22° C | 48% | 1019.8 hPa | - | - | - | - |
| 1777802816 | 12.22° C | 49% | 1019.7 hPa | - | - | - | - |
| 1777802216 | 12.22° C | 49% | 1019.7 hPa | - | - | - | - |
| 1777801671 | 12.22° C | 49% | 1019.6 hPa | - | - | - | - |
| 1777801616 | 12.22° C | 49% | 1019.6 hPa | - | - | - | - |
| 1777801016 | 12.22° C | 49% | 1019.7 hPa | - | - | - | - |
| 1777800415 | 12.22° C | 51% | 1019.4 hPa | - | - | - | - |
| 1777799815 | 12.22° C | 49% | 1019.4 hPa | - | - | - | - |
| 1777799215 | 12.22° C | 49% | 1019.6 hPa | - | - | - | - |
| 1777798615 | 12.22° C | 49% | 1019.5 hPa | - | - | - | - |
| 1777798015 | 12.22° C | 50% | 1020.6 hPa | - | - | - | - |
| 1777797420 | 12.78° C | 49% | 1019.6 hPa | - | - | - | - |
| 1777796820 | 12.78° C | 50% | 1019.8 hPa | - | - | - | - |
* Rain since midnight (hover to see other rain measurements)
** Current wind speed in m/s (hover to see current wind gust speed)